Location: Sawmill Trailhead
(33.5800°N, 116.4497°W)
Time: 12:08:13
(UTC-07:00)

Amateur Radio Satellites - All Passes

Search period start: 01 September 2014 11:38
Search period end: 02 September 2014 11:38
Location: Sawmill Trailhead, 33.5800°N, 116.4497°W

Satellite Date Start Highest point End Downlink Frequencies (MHz)
Time Altitude Azimuth
RS-15 01 Sep 11:43:34 11:45:41 11° 346° (NNW) 11:47:48 29.354 - 29.394 USB, Beacon 29.352 USB
SO-50 01 Sep 11:46:51 11:50:59 28° 54° (NE) 11:55:09 436.795 FM
MaSat-1 01 Sep 11:46:51 11:50:31 22° 102° (ESE) 11:54:22 437.345 MHz
FUNcube-1 01 Sep 12:05:17 12:08:46 22° 290° (WNW) 12:12:16 145.950 - 145.970 MHz USB
PANSAT 01 Sep 12:05:29 12:09:04 36° 175° (S) 12:12:39 not established
Oscar 16 01 Sep 12:07:56 12:08:13 10° 62° (ENE) 12:08:29 437.025 USB, Beacon 2401.1428
JAS-1B 01 Sep 12:47:17 12:54:20 24° 63° (ENE) 13:00:53 435.800 - 435.900 CW/SSB
Oscar 19 01 Sep 13:06:48 13:11:38 42° 72° (ENE) 13:16:29 437.125 CW, 437.150 USB
AO-Echo 01 Sep 13:20:10 13:24:15 25° 70° (ENE) 13:28:14 ?
MaSat-1 01 Sep 13:22:46 13:27:13 36° 299° (WNW) 13:31:57 437.345 MHz
SO-50 01 Sep 13:27:20 13:31:29 29° 248° (WSW) 13:35:38 436.795 FM
UOSAT-12 01 Sep 13:36:19 13:40:20 27° 53° (NE) 13:44:18 437.025 FM, 437.400 FM
Oscar 16 01 Sep 13:41:39 13:46:48 82° 257° (WSW) 13:52:00 437.025 USB, Beacon 2401.1428
ITAMSAT 1 01 Sep 13:43:32 13:48:20 41° 72° (ENE) 13:53:09 435.822 SSB
PANSAT 01 Sep 13:45:25 13:48:56 33° 188° (S) 13:52:27 not established
Uribyol 2 01 Sep 13:52:45 13:57:46 55° 73° (ENE) 14:02:47 436.500 FM
RS-15 01 Sep 13:59:50 14:05:30 15° 26° (NNE) 14:11:12 29.354 - 29.394 USB, Beacon 29.352 USB
TMSAT-1 01 Sep 14:03:53 14:07:39 20° 67° (ENE) 14:11:26 436.925 FM
AO-27 01 Sep 14:12:40 14:17:50 84° 76° (ENE) 14:23:02 436.795 MHz FM
JAS-1B 01 Sep 14:34:09 14:44:02 78° 257° (WSW) 14:53:03 435.800 - 435.900 CW/SSB
AO-7 01 Sep 14:35:38 14:40:57 19° 56° (ENE) 14:46:14 29.400 - 29.500 MHz
Oscar 19 01 Sep 14:47:33 14:51:05 19° 266° (W) 14:54:39 437.125 CW, 437.150 USB
Gurwin Techsat 1B 01 Sep 14:51:36 14:56:54 85° 76° (ENE) 15:02:13 435.225 FM
AO-Echo 01 Sep 14:58:30 15:02:52 29° 263° (W) 15:07:08 ?
UOSAT-12 01 Sep 15:16:24 15:20:24 28° 249° (WSW) 15:24:19 437.025 FM, 437.400 FM
ITAMSAT 1 01 Sep 15:24:20 15:27:56 19° 265° (W) 15:31:33 435.822 SSB
PANSAT 01 Sep 15:26:11 15:28:40 16° 200° (SSW) 15:31:08 not established
Uribyol 2 01 Sep 15:34:53 15:37:30 14° 267° (W) 15:40:08 436.500 FM
ISS 01 Sep 15:38:25 15:39:59 13° 29° (NNE) 15:41:33 145.800 FM
TMSAT-1 01 Sep 15:42:16 15:47:14 42° 261° (W) 15:52:14 436.925 FM
Uosat F 01 Sep 15:50:11 15:54:50 40° 72° (ENE) 15:59:29 435.120 FM
Sapphire 01 Sep 15:57:02 16:02:10 47° 111° (ESE) 16:07:20 437.095 MHz 1200 baud AX-25 AFSK
RS-15 01 Sep 16:10:31 16:21:18 52° 55° (NE) 16:32:27 29.354 - 29.394 USB, Beacon 29.352 USB
AO-7 01 Sep 16:24:20 16:32:41 85° 253° (WSW) 16:41:04 29.400 - 29.500 MHz
PCSat 01 Sep 16:25:57 16:31:21 85° 295° (WNW) 16:36:48 145.825 MHz
JAS-1B 01 Sep 16:30:33 16:35:10 14° 270° (W) 16:39:41 435.800 - 435.900 CW/SSB
Hamsat 01 Sep 17:13:37 17:17:02 23° 71° (ENE) 17:20:28 145.90 MHz
ISS 01 Sep 17:13:44 17:17:04 76° 225° (SW) 17:20:23 145.800 FM
OPAL 01 Sep 17:22:51 17:28:06 87° 105° (ESE) 17:33:17 ?
Uosat F 01 Sep 17:30:17 17:33:43 18° 265° (W) 17:37:09 435.120 FM
Sapphire 01 Sep 17:41:46 17:45:47 21° 306° (NW) 17:49:51 437.095 MHz 1200 baud AX-25 AFSK
JAS-2 01 Sep 18:04:53 18:11:11 89° 76° (ENE) 18:16:48 435.800 - 435.900 CW/SSB, 435.910 FM
PCSat 01 Sep 18:14:00 18:15:33 11° 313° (NW) 18:17:06 145.825 MHz
SO-67 01 Sep 18:16:01 18:17:25 12° 70° (ENE) 18:18:48 435.3500 MHz FM
AO-7 01 Sep 18:22:54 18:26:21 13° 268° (W) 18:29:49 29.400 - 29.500 MHz
RS-15 01 Sep 18:23:15 18:33:20 41° 253° (WSW) 18:43:50 29.354 - 29.394 USB, Beacon 29.352 USB
Hamsat 01 Sep 18:49:22 18:52:51 24° 264° (W) 18:56:22 145.90 MHz
STRAND 1 01 Sep 19:10:14 19:15:08 46° 100° (E) 19:20:01 ?
HO-68 01 Sep 19:38:07 19:43:00 20° 61° (ENE) 19:47:52 435.675 MHz FM
SO-67 01 Sep 19:47:08 19:50:09 28° 263° (W) 19:53:11 435.3500 MHz FM
UKube-1 01 Sep 20:45:48 20:49:20 25° 70° (ENE) 20:52:52 145.840 MHz, 145.915 MHz
Oscar 11 01 Sep 20:50:22 20:53:08 17° 68° (ENE) 20:55:55 145.825 FM, Beacon 2401.500 USB
STRAND 1 01 Sep 20:50:37 20:53:55 18° 294° (WNW) 20:57:13 ?
Saudisat 1A 01 Sep 21:18:00 21:22:00 35° 113° (ESE) 21:26:00 436.775 MHz
HO-68 01 Sep 21:22:55 21:30:00 68° 257° (WSW) 21:37:07 435.675 MHz FM
FUNcube-1 01 Sep 21:22:58 21:25:06 14° 67° (ENE) 21:27:16 145.950 - 145.970 MHz USB
MaSat-1 01 Sep 21:45:06 21:48:12 19° 56° (NE) 21:51:01 437.345 MHz
KITSAT 1 01 Sep 22:15:33 22:23:05 45° 109° (ESE) 22:30:37 435.175 FM
UKube-1 01 Sep 22:22:01 22:25:26 23° 264° (W) 22:28:51 145.840 MHz, 145.915 MHz
Oscar 11 01 Sep 22:25:05 22:29:01 34° 262° (W) 22:32:59 145.825 FM, Beacon 2401.500 USB
AO-40 01 Sep 22:31:49 02:04:49 31° 122° (ESE) 03:28:23 Beacon 2401.320
FUNcube-1 01 Sep 22:57:13 23:01:06 39° 262° (W) 23:05:05 145.950 - 145.970 MHz USB
Saudisat 1A 01 Sep 22:58:22 23:01:38 20° 308° (NW) 23:04:56 436.775 MHz
MaSat-1 01 Sep 23:21:37 23:25:14 28° 256° (WSW) 23:28:24 437.345 MHz
Oscar 10/S400 02 Sep 00:02:20 00:47:49 68° 202° (SSW) 10:30:01 145.825 - 145.975 CW/USB, Beacon 145.810 USB
KITSAT 1 02 Sep 00:11:10 00:18:29 37° 306° (NW) 00:25:52 435.175 FM
Sapphire 02 Sep 00:50:00 00:53:36 18° 52° (NE) 00:57:11 437.095 MHz 1200 baud AX-25 AFSK
PCSat 02 Sep 01:18:19 01:23:11 33° 58° (ENE) 01:28:01 145.825 MHz
Oscar 19 02 Sep 01:23:15 01:27:06 21° 95° (E) 01:30:55 437.125 CW, 437.150 USB
Oscar 16 02 Sep 01:57:37 02:02:39 50° 100° (E) 02:07:39 437.025 USB, Beacon 2401.1428
SO-50 02 Sep 01:58:56 02:02:11 20° 110° (ESE) 02:05:29 436.795 FM
ITAMSAT 1 02 Sep 02:01:12 02:05:00 20° 95° (E) 02:08:48 435.822 SSB
Uribyol 2 02 Sep 02:10:02 02:14:26 27° 97° (E) 02:18:48 436.500 FM
JAS-1B 02 Sep 02:27:23 02:33:04 35° 96° (E) 02:38:14 435.800 - 435.900 CW/SSB
AO-27 02 Sep 02:30:01 02:34:56 42° 99° (E) 02:39:49 436.795 MHz FM
Sapphire 02 Sep 02:32:04 02:37:23 58° 248° (WSW) 02:42:41 437.095 MHz 1200 baud AX-25 AFSK
OPAL 02 Sep 03:00:28 03:00:46 10° 60° (ENE) 03:01:04 ?
Oscar 19 02 Sep 03:01:44 03:06:30 38° 289° (WNW) 03:11:14 437.125 CW, 437.150 USB
PCSat 02 Sep 03:01:53 03:06:26 28° 253° (WSW) 03:10:57 145.825 MHz
AO-Echo 02 Sep 03:09:00 03:13:39 65° 285° (WNW) 03:18:21 ?
Gurwin Techsat 1B 02 Sep 03:12:07 03:17:14 48° 100° (E) 03:22:19 435.225 FM
Oscar 16 02 Sep 03:38:19 03:41:33 17° 294° (WNW) 03:44:46 437.025 USB, Beacon 2401.1428
SO-50 02 Sep 03:38:27 03:42:28 33° 305° (NW) 03:46:36 436.795 FM
ITAMSAT 1 02 Sep 03:39:47 03:44:33 39° 289° (WNW) 03:49:20 435.822 SSB
UOSAT-12 02 Sep 03:44:30 03:47:45 19° 109° (ESE) 03:51:02 437.025 FM, 437.400 FM
Uribyol 2 02 Sep 03:49:21 03:53:48 29° 291° (WNW) 03:58:15 436.500 FM
TMSAT-1 02 Sep 04:01:52 04:07:09 76° 285° (WNW) 04:12:26 436.925 FM
Uosat F 02 Sep 04:03:00 04:06:14 17° 94° (E) 04:09:26 435.120 FM
AO-27 02 Sep 04:10:26 04:14:05 20° 293° (WNW) 04:17:45 436.795 MHz FM
JAS-1B 02 Sep 04:18:20 04:23:31 27° 296° (WNW) 04:28:15 435.800 - 435.900 CW/SSB
AO-7 02 Sep 04:30:53 04:38:38 43° 101° (E) 04:46:20 29.400 - 29.500 MHz
OPAL 02 Sep 04:33:49 04:38:52 84° 255° (WSW) 04:44:01 ?
Gurwin Techsat 1B 02 Sep 04:53:17 04:56:46 18° 294° (WNW) 05:00:15 435.225 FM
JAS-2 02 Sep 05:20:56 05:22:16 11° 93° (E) 05:23:38 435.800 - 435.900 CW/SSB, 435.910 FM
UOSAT-12 02 Sep 05:23:20 05:27:35 37° 304° (NW) 05:31:56 437.025 FM, 437.400 FM
Uosat F 02 Sep 05:40:26 05:45:09 43° 288° (WNW) 05:49:51 435.120 FM
Saudisat 1A 02 Sep 05:50:35 05:51:45 11° 46° (NE) 05:52:54 436.775 MHz
KITSAT 1 02 Sep 06:15:37 06:18:29 12° 37° (NE) 06:21:21 435.175 FM
STRAND 1 02 Sep 06:22:18 06:27:06 44° 72° (ENE) 06:31:55 ?
AO-7 02 Sep 06:23:50 06:31:12 37° 296° (WNW) 06:38:34 29.400 - 29.500 MHz
RS-15 02 Sep 06:29:03 06:39:32 48° 109° (ESE) 06:49:46 29.354 - 29.394 USB, Beacon 29.352 USB
Hamsat 02 Sep 06:38:12 06:42:33 82° 102° (ESE) 06:46:50 145.90 MHz
JAS-2 02 Sep 07:02:17 07:07:38 73° 285° (WNW) 07:13:32 435.800 - 435.900 CW/SSB, 435.910 FM
SO-67 02 Sep 07:14:48 07:17:36 23° 96° (E) 07:20:24 435.3500 MHz FM
Saudisat 1A 02 Sep 07:27:25 07:31:50 76° 243° (WSW) 07:36:12 436.775 MHz
STRAND 1 02 Sep 08:03:09 08:06:26 17° 266° (W) 08:09:44 ?
KITSAT 1 02 Sep 08:07:52 08:15:48 57° 59° (ENE) 08:23:40 435.175 FM
ISS 02 Sep 08:17:20 08:20:03 24° 129° (SE) 08:22:46 145.800 FM
RS-15 02 Sep 08:41:31 08:51:51 44° 309° (NW) 09:02:07 29.354 - 29.394 USB, Beacon 29.352 USB
SO-67 02 Sep 08:48:28 08:50:25 14° 290° (WNW) 08:52:21 435.3500 MHz FM
HO-68 02 Sep 08:55:40 09:01:45 29° 97° (E) 09:07:47 435.675 MHz FM
ISS 02 Sep 09:53:51 09:56:42 26° 324° (NW) 09:59:33 145.800 FM
PANSAT 02 Sep 10:01:12 10:04:11 21° 163° (SSE) 10:07:10 not established
KITSAT 1 02 Sep 10:04:13 10:10:38 27° 255° (WSW) 10:17:03 435.175 FM
UKube-1 02 Sep 10:13:09 10:17:30 82° 103° (ESE) 10:21:51 145.840 MHz, 145.915 MHz
Oscar 11 02 Sep 10:16:18 10:20:36 57° 100° (E) 10:24:52 145.825 FM, Beacon 2401.500 USB
HO-68 02 Sep 10:42:48 10:49:30 45° 292° (WNW) 10:56:11 435.675 MHz FM
FUNcube-1 02 Sep 10:49:44 10:54:13 52° 100° (E) 10:58:42 145.950 - 145.970 MHz USB
RS-15 02 Sep 11:03:59 11:08:16 13° 339° (NNW) 11:12:35 29.354 - 29.394 USB, Beacon 29.352 USB
MaSat-1 02 Sep 11:28:26 11:31:54 20° 102° (ESE) 11:35:33 437.345 MHz
